TimeCST,TemperatureF,Dew PointF,Humidity,Sea Level PressureIn,VisibilityMPH,Wind Direction,Wind SpeedMPH,Gust SpeedMPH,PrecipitationIn,Events,Conditions,WindDirDegrees,DateUTC
12:14 AM,36.5,35.4,96,30.19,2.0,Calm,Calm,-,N/A,,Light Drizzle,0,2012-11-04 05:14:00
12:34 AM,36.5,35.2,95,30.19,2.0,Calm,Calm,-,N/A,,Light Drizzle,0,2012-11-04 05:34:00
12:54 AM,36.0,34.9,96,30.18,2.0,Calm,Calm,-,N/A,,Overcast,0,2012-11-04 05:54:00
1:14 AM,36.0,34.9,96,30.19,2.5,Calm,Calm,-,N/A,,Overcast,0,2012-11-04 06:14:00
1:34 AM,36.0,34.9,96,30.18,2.0,Calm,Calm,-,N/A,,Overcast,0,2012-11-04 06:34:00
1:54 AM,36.0,34.9,96,30.19,2.5,Calm,Calm,-,N/A,,Overcast,0,2012-11-04 06:54:00
1:13 AM,35.8,34.7,96,30.18,2.0,Calm,Calm,-,N/A,,Overcast,0,2012-11-04 07:13:00
1:34 AM,35.8,34.7,96,30.19,5.0,Calm,Calm,-,N/A,,Overcast,0,2012-11-04 07:34:00
1:54 AM,35.8,34.3,94,30.19,4.0,Calm,Calm,-,N/A,,Overcast,0,2012-11-04 07:54:00
2:14 AM,35.8,34.7,96,30.19,3.0,Calm,Calm,-,N/A,,Overcast,0,2012-11-04 08:14:00
2:34 AM,35.6,34.3,95,30.19,3.0,Calm,Calm,-,N/A,,Overcast,0,2012-11-04 08:34:00
2:54 AM,35.6,34.3,95,30.18,2.5,Calm,Calm,-,N/A,,Overcast,0,2012-11-04 08:54:00
3:14 AM,35.6,34.2,94,30.18,2.5,Calm,Calm,-,N/A,,Overcast,0,2012-11-04 09:14:00
3:34 AM,35.2,34.0,95,30.18,3.0,Calm,Calm,-,N/A,,Overcast,0,2012-11-04 09:34:00
3:54 AM,35.1,33.8,95,30.18,4.0,Calm,Calm,-,N/A,,Overcast,0,2012-11-04 09:54:00
4:14 AM,34.7,33.3,94,30.18,5.0,Calm,Calm,-,N/A,,Overcast,0,2012-11-04 10:14:00
4:34 AM,34.7,32.5,92,30.18,7.0,Calm,Calm,-,N/A,,Overcast,0,2012-11-04 10:34:00
4:54 AM,34.5,32.4,92,30.18,7.0,Calm,Calm,-,N/A,,Overcast,0,2012-11-04 10:54:00
5:14 AM,34.3,32.5,93,30.18,7.0,Calm,Calm,-,N/A,,Overcast,0,2012-11-04 11:14:00
5:34 AM,34.2,32.0,92,30.18,10.0,Calm,Calm,-,N/A,,Overcast,0,2012-11-04 11:34:00
5:54 AM,34.0,32.0,92,30.18,10.0,Calm,Calm,-,N/A,,Overcast,0,2012-11-04 11:54:00
6:14 AM,34.0,32.0,92,30.17,10.0,Calm,Calm,-,N/A,,Overcast,0,2012-11-04 12:14:00
6:33 AM,34.0,32.0,92,30.17,10.0,Calm,Calm,-,N/A,,Overcast,0,2012-11-04 12:33:00
6:54 AM,34.0,32.0,92,30.17,10.0,Calm,Calm,-,N/A,,Overcast,0,2012-11-04 12:54:00
7:14 AM,34.0,32.0,92,30.17,10.0,Calm,Calm,-,N/A,,Overcast,0,2012-11-04 13:14:00
7:34 AM,34.2,32.0,92,30.18,7.0,Calm,Calm,-,N/A,,Overcast,0,2012-11-04 13:34:00
7:54 AM,34.2,32.0,92,30.17,10.0,Calm,Calm,-,N/A,,Overcast,0,2012-11-04 13:54:00
8:14 AM,34.2,32.0,92,30.17,7.0,Calm,Calm,-,N/A,,Overcast,0,2012-11-04 14:14:00
8:34 AM,34.5,32.2,91,30.17,7.0,Calm,Calm,-,N/A,,Overcast,0,2012-11-04 14:34:00
8:54 AM,35.1,33.1,92,30.16,5.0,Calm,Calm,-,N/A,,Overcast,0,2012-11-04 14:54:00
9:14 AM,35.6,33.3,91,30.16,4.0,Calm,Calm,-,N/A,,Overcast,0,2012-11-04 15:14:00
9:33 AM,35.6,33.3,91,30.15,5.0,Calm,Calm,-,N/A,,Overcast,0,2012-11-04 15:33:00
9:54 AM,36.0,34.0,93,30.15,4.0,Calm,Calm,-,N/A,,Overcast,0,2012-11-04 15:54:00
10:14 AM,36.3,34.0,91,30.15,5.0,Calm,Calm,-,N/A,,Overcast,0,2012-11-04 16:14:00
10:34 AM,36.7,34.2,91,30.15,5.0,Calm,Calm,-,N/A,,Overcast,0,2012-11-04 16:34:00
10:54 AM,36.9,34.0,89,30.14,7.0,Calm,Calm,-,N/A,,Overcast,0,2012-11-04 16:54:00
11:13 AM,36.7,34.2,91,30.14,7.0,Calm,Calm,-,N/A,,Overcast,0,2012-11-04 17:13:00
11:34 AM,37.0,34.7,91,30.14,5.0,Calm,Calm,-,N/A,,Overcast,0,2012-11-04 17:34:00
11:54 AM,37.0,34.7,91,30.14,5.0,Calm,Calm,-,N/A,,Overcast,0,2012-11-04 17:54:00
12:14 PM,37.4,34.7,90,30.13,5.0,Calm,Calm,-,N/A,,Overcast,0,2012-11-04 18:14:00
12:34 PM,37.6,34.7,89,30.12,5.0,Calm,Calm,-,N/A,,Overcast,0,2012-11-04 18:34:00
12:54 PM,37.6,35.1,91,30.11,5.0,Calm,Calm,-,N/A,,Overcast,0,2012-11-04 18:54:00
1:14 PM,37.8,35.1,90,30.11,5.0,Calm,Calm,-,N/A,,Overcast,0,2012-11-04 19:14:00
1:34 PM,38.1,34.9,88,30.10,5.0,Calm,Calm,-,N/A,,Overcast,0,2012-11-04 19:34:00
1:54 PM,38.1,35.1,89,30.10,5.0,Calm,Calm,-,N/A,,Overcast,0,2012-11-04 19:54:00
2:14 PM,38.5,35.1,87,30.10,7.0,Calm,Calm,-,N/A,,Overcast,0,2012-11-04 20:14:00
2:34 PM,39.0,35.4,87,30.10,7.0,Calm,Calm,-,N/A,,Overcast,0,2012-11-04 20:34:00
2:54 PM,38.8,35.1,86,30.10,7.0,Calm,Calm,-,N/A,,Overcast,0,2012-11-04 20:54:00
3:14 PM,38.7,34.7,86,30.10,7.0,Calm,Calm,-,N/A,,Overcast,0,2012-11-04 21:14:00
3:34 PM,38.5,35.1,87,30.10,7.0,Calm,Calm,-,N/A,,Overcast,0,2012-11-04 21:34:00
3:54 PM,38.3,35.1,88,30.10,7.0,Calm,Calm,-,N/A,,Overcast,0,2012-11-04 21:54:00
4:14 PM,38.3,35.1,88,30.10,7.0,Calm,Calm,-,N/A,,Overcast,0,2012-11-04 22:14:00
4:34 PM,38.3,35.1,88,30.10,7.0,Calm,Calm,-,N/A,,Overcast,0,2012-11-04 22:34:00
4:54 PM,37.9,35.6,91,30.10,5.0,Calm,Calm,-,N/A,,Drizzle,0,2012-11-04 22:54:00
5:14 PM,37.6,35.6,93,30.11,5.0,Calm,Calm,-,N/A,Rain,Rain,0,2012-11-04 23:14:00
5:34 PM,37.4,35.6,93,30.11,5.0,Calm,Calm,-,N/A,Rain,Light Rain,0,2012-11-04 23:34:00
5:54 PM,37.4,35.4,93,30.11,5.0,Calm,Calm,-,0.01,Rain,Light Rain,0,2012-11-04 23:54:00
6:14 PM,37.0,35.2,93,30.11,5.0,Calm,Calm,-,N/A,Rain,Light Rain,0,2012-11-05 00:14:00
6:34 PM,37.0,35.2,93,30.11,4.0,Calm,Calm,-,0.02,Rain,Light Rain,0,2012-11-05 00:34:00
6:54 PM,36.9,35.4,95,30.12,3.0,Calm,Calm,-,0.02,Rain,Light Rain,0,2012-11-05 00:54:00
7:14 PM,36.5,35.1,95,30.12,3.0,Calm,Calm,-,0.01,Rain,Light Rain,0,2012-11-05 01:14:00
7:34 PM,36.5,35.1,95,30.12,3.0,Calm,Calm,-,0.01,Rain,Light Rain,0,2012-11-05 01:34:00
7:54 PM,36.1,34.9,95,30.11,2.5,Calm,Calm,-,0.02,Rain,Light Rain,0,2012-11-05 01:54:00
8:14 PM,36.1,34.9,95,30.11,2.5,Calm,Calm,-,0.01,Rain,Light Rain,0,2012-11-05 02:14:00
8:34 PM,36.0,34.7,95,30.11,2.5,Calm,Calm,-,0.02,Rain,Light Rain,0,2012-11-05 02:34:00
8:54 PM,36.0,34.7,95,30.11,2.0,Calm,Calm,-,0.03,Rain,Light Rain,0,2012-11-05 02:54:00
9:13 PM,35.8,34.7,96,30.11,2.0,Calm,Calm,-,0.01,Rain,Light Rain,0,2012-11-05 03:13:00
9:34 PM,35.8,34.7,96,30.11,2.0,Calm,Calm,-,0.02,Rain,Light Rain,0,2012-11-05 03:34:00
9:54 PM,35.6,34.7,97,30.11,2.0,Calm,Calm,-,0.02,Rain,Light Rain,0,2012-11-05 03:54:00
10:14 PM,35.6,34.7,97,30.11,2.0,Calm,Calm,-,0.01,Rain,Rain,0,2012-11-05 04:14:00
10:34 PM,35.6,34.7,97,30.11,2.0,Calm,Calm,-,0.02,Rain,Light Rain,0,2012-11-05 04:34:00
10:54 PM,35.6,34.7,97,30.11,2.0,Calm,Calm,-,0.03,Rain,Rain,0,2012-11-05 04:54:00